QPF
0.10 0.11 0.09 0.07 0.07 0.08 0.08 0.09 0.11 0.11 0.10 0.09 0.08 0.08 0.07 0.06 0.08 0.08 0.06 0.09 0.14 0.15 0.20 0.23 0.26 0.27 0.25 0.23 0.19 0.16 0.13 0.10 0.08 0.05 0.04 0.05 0.06 0.07 0.06 0.04 0.03 0.02 0.02
0.11 0.11 0.08 0.07 0.06 0.05 0.06 0.07 0.07 0.06 0.06 0.05 0.05 0.05 0.05 0.06 0.06 0.05 0.05 0.06 0.09 0.11 0.13 0.16 0.21 0.23 0.23 0.20 0.20 0.18 0.15 0.13 0.11 0.08 0.06 0.05 0.05 0.07 0.09 0.08 0.07 0.05 0.05
0.14 0.12 0.08 0.07 0.05 0.05 0.06 0.05 0.05 0.04 0.04 0.04 0.03 0.04 0.04 0.04 0.04 0.04 0.05 0.05 0.06 0.08 0.08 0.11 0.15 0.18 0.18 0.17 0.17 0.18 0.16 0.15 0.12 0.10 0.09 0.08 0.06 0.05 0.08 0.09 0.10 0.09 0.07
0.17 0.13 0.09 0.07 0.06 0.05 0.05 0.04 0.04 0.03 0.02 0.01 0.01 0.02 0.03 0.03 0.03 0.03 0.03 0.03 0.04 0.03 0.05 0.08 0.12 0.15 0.18 0.21 0.22 0.22 0.20 0.16 0.14 0.12 0.10 0.09 0.07 0.06 0.06 0.07 0.09 0.09 0.07
0.17 0.13 0.12 0.10 0.09 0.07 0.05 0.04 0.03 0.01 0.01 0.01 0.01 0.01 0.01 0.02 0.02 0.02 0.02 0.02 0.02 0.03 0.03 0.05 0.08 0.11 0.14 0.18 0.22 0.22 0.20 0.17 0.16 0.15 0.14 0.12 0.10 0.07 0.06 0.06 0.07 0.08 0.08
0.21 0.16 0.15 0.13 0.09 0.06 0.05 0.04 0.03 0.02 0.01 0.01 0.01 0.01 0.01 0.01 0.01 0.01 0.02 0.01 0.01 0.02 0.02 0.04 0.06 0.07 0.08 0.11 0.13 0.16 0.18 0.18 0.16 0.15 0.15 0.14 0.14 0.11 0.08 0.07 0.06 0.08 0.08
0.19 0.15 0.10 0.08 0.07 0.05 0.05 0.03 0.02 0.01 0.01 0.01 0.01 0.01 0.01 0.01 0.01 0.00 0.01 0.01 0.00 0.01 0.01 0.02 0.03 0.03 0.03 0.04 0.05 0.09 0.12 0.14 0.12 0.12 0.12 0.12 0.12 0.12 0.10 0.08 0.07 0.06 0.06
0.10 0.10 0.09 0.05 0.04 0.02 0.01 0.01 0.01 0.00 0.00 0.00 0.00 0.00 0.00 0.00 0.00 0.00 0.00 0.00 0.00 0.00 0.01 0.01 0.02 0.02 0.02 0.02 0.03 0.04 0.07 0.09 0.10 0.12 0.13 0.12 0.11 0.09 0.08 0.08 0.06 0.05 0.05
0.08 0.07 0.07 0.05 0.02 0.01 0.01 0.00 0.00 0.00 0.00 0.00 0.00 0.00 0.00 0.00 0.00 0.00 0.00 0.00 0.00 0.00 0.00 0.01 0.01 0.01 0.01 0.02 0.03 0.03 0.04 0.07 0.09 0.11 0.11 0.11 0.10 0.08 0.06 0.06 0.06 0.06 0.05
0.11 0.08 0.07 0.05 0.03 0.01 0.01 0.00 0.00 0.00 0.00 0.00 0.00 0.00 0.00 0.00 0.00 0.00 0.00 0.00 0.00 0.00 0.00 0.00 0.00 0.00 0.01 0.01 0.03 0.04 0.03 0.04 0.07 0.10 0.12 0.11 0.09 0.08 0.06 0.06 0.06 0.07 0.06
0.13 0.09 0.08 0.07 0.05 0.04 0.02 0.01 0.00 0.00 0.00 0.00 0.00 0.00 0.00 0.00 0.00 0.00 0.00 0.00 0.00 0.00 0.00 0.00 0.00 0.00 0.00 0.01 0.02 0.03 0.04 0.04 0.05 0.07 0.10 0.11 0.10 0.09 0.07 0.06 0.07 0.08 0.07
0.11 0.09 0.08 0.07 0.06 0.05 0.04 0.02 0.01 0.01 0.00 0.00 0.00 0.00 0.00 0.00 0.00 0.00 0.00 0.00 0.00 0.00 0.00 0.00 0.00 0.00 0.00 0.01 0.01 0.03 0.04 0.04 0.05 0.06 0.07 0.08 0.09 0.09 0.08 0.07 0.07 0.07 0.07
0.11 0.10 0.09 0.08 0.08 0.06 0.05 0.04 0.03 0.01 0.01 0.00 0.00 0.00 0.00 0.00 0.00 0.00 0.00 0.00 0.00 0.00 0.00 0.00 0.00 0.00 0.01 0.01 0.01 0.03 0.03 0.03 0.04 0.05 0.05 0.06 0.06 0.07 0.07 0.06 0.06 0.06 0.06
0.09 0.09 0.08 0.08 0.08 0.08 0.06 0.05 0.03 0.02 0.02 0.01 0.00 0.00 0.00 0.00 0.00 0.00 0.00 0.01 0.01 0.00 0.00 0.00 0.00 0.01 0.01 0.01 0.03 0.04 0.03 0.04 0.04 0.04 0.04 0.04 0.04 0.04 0.05 0.05 0.04 0.03 0.03
0.05 0.06 0.07 0.08 0.08 0.08 0.07 0.06 0.05 0.04 0.02 0.01 0.01 0.01 0.01 0.00 0.00 0.00 0.00 0.01 0.01 0.01 0.00 0.00 0.00 0.01 0.01 0.02 0.03 0.03 0.03 0.03 0.03 0.03 0.03 0.03 0.03 0.02 0.02 0.02 0.02 0.02 0.02
0.03 0.04 0.05 0.06 0.07 0.08 0.07 0.07 0.06 0.05 0.04 0.02 0.01 0.01 0.00 0.00 0.00 0.00 0.00 0.00 0.01 0.01 0.01 0.00 0.00 0.01 0.02 0.01 0.02 0.02 0.03 0.02 0.02 0.02 0.02 0.02 0.02 0.03 0.02 0.02 0.01 0.01 0.01
0.01 0.01 0.02 0.03 0.04 0.05 0.06 0.07 0.07 0.07 0.06 0.05 0.03 0.02 0.01 0.00 0.00 0.00 0.00 0.00 0.00 0.01 0.01 0.00 0.00 0.01 0.02 0.01 0.01 0.02 0.02 0.01 0.01 0.01 0.01 0.01 0.02 0.02 0.02 0.02 0.01 0.01 0.01
0.00 0.00 0.00 0.01 0.01 0.02 0.03 0.03 0.05 0.06 0.07 0.07 0.06 0.05 0.03 0.01 0.00 0.00 0.00 0.00 0.00 0.01 0.01 0.01 0.01 0.02 0.02 0.02 0.01 0.02 0.02 0.01 0.01 0.02 0.01 0.01 0.01 0.01 0.01 0.01 0.01 0.01 0.01
0.00 0.00 0.00 0.00 0.00 0.01 0.01 0.01 0.01 0.02 0.03 0.04 0.05 0.05 0.04 0.03 0.01 0.01 0.00 0.00 0.00 0.00 0.01 0.01 0.01 0.02 0.03 0.03 0.03 0.03 0.03 0.02 0.01 0.01 0.01 0.01 0.01 0.01 0.01 0.01 0.01 0.01 0.01
0.00 0.00 0.00 0.00 0.00 0.00 0.00 0.01 0.01 0.01 0.01 0.01 0.01 0.02 0.03 0.03 0.02 0.02 0.01 0.00 0.00 0.00 0.01 0.02 0.02 0.03 0.04 0.04 0.04 0.03 0.03 0.03 0.03 0.02 0.02 0.01 0.01 0.01 0.01 0.01 0.00 0.00 0.00
0.00 0.00 0.00 0.00 0.00 0.00 0.00 0.00 0.00 0.01 0.01 0.01 0.01 0.01 0.01 0.01 0.01 0.02 0.02 0.01 0.01 0.01 0.01 0.02 0.03 0.04 0.05 0.06 0.05 0.03 0.02 0.02 0.03 0.03 0.02 0.01 0.01 0.00 0.01 0.01 0.01 0.00 0.00
0.00 0.00 0.00 0.00 0.00 0.00 0.00 0.00 0.00 0.00 0.00 0.01 0.01 0.01 0.01 0.01 0.01 0.01 0.01 0.01 0.01 0.01 0.01 0.02 0.03 0.03 0.03 0.03 0.03 0.04 0.03 0.02 0.03 0.02 0.01 0.01 0.00 0.00 0.00 0.00 0.00 0.00 0.00
0.00 0.00 0.00 0.00 0.00 0.00 0.00 0.00 0.00 0.00 0.00 0.00 0.01 0.01 0.01 0.02 0.02 0.02 0.02 0.02 0.01 0.01 0.01 0.02 0.02 0.02 0.03 0.02 0.03 0.04 0.05 0.04 0.03 0.03 0.01 0.01 0.01 0.00 0.00 0.00 0.00 0.00 0.00
0.00 0.00 0.00 0.00 0.00 0.00 0.00 0.00 0.00 0.00 0.00 0.00 0.00 0.01 0.01 0.02 0.02 0.03 0.03 0.02 0.02 0.01 0.01 0.01 0.02 0.03 0.04 0.04 0.04 0.05 0.06 0.05 0.04 0.03 0.02 0.01 0.01 0.00 0.00 0.00 0.00 0.00 0.00
0.01 0.00 0.00 0.00 0.00 0.00 0.00 0.00 0.00 0.00 0.00 0.00 0.01 0.01 0.01 0.02 0.03 0.04 0.04 0.03 0.03 0.02 0.02 0.02 0.03 0.05 0.06 0.05 0.05 0.04 0.04 0.04 0.03 0.03 0.01 0.01 0.01 0.00 0.00 0.00 0.00 0.00 0.00
0.01 0.01 0.00 0.00 0.00 0.00 0.00 0.00 0.00 0.00 0.00 0.01 0.02 0.02 0.02 0.02 0.03 0.04 0.04 0.03 0.03 0.02 0.02 0.02 0.03 0.05 0.07 0.07 0.07 0.05 0.04 0.03 0.02 0.02 0.01 0.00 0.00 0.00 0.00 0.00 0.00 0.00 0.00
MSLP
1012.95 1013.08 1013.07 1012.97 1012.80 1012.62 1012.48 1012.41 1012.43 1012.53 1012.69 1012.87 1013.05 1013.21 1013.31 1013.37 1013.39 1013.39 1013.39 1013.41 1013.46 1013.55 1013.68 1013.85 1014.05 1014.28 1014.52 1014.78 1015.05 1015.34 1015.65 1015.97 1016.32 1016.68 1017.07 1017.46 1017.86 1018.26 1018.65 1019.01 1019.34 1019.64 1019.91
1012.25 1012.47 1012.57 1012.57 1012.50 1012.39 1012.29 1012.23 1012.24 1012.33 1012.46 1012.63 1012.80 1012.94 1013.03 1013.07 1013.06 1013.02 1012.98 1012.95 1012.96 1013.03 1013.15 1013.32 1013.52 1013.76 1014.01 1014.27 1014.53 1014.80 1015.07 1015.37 1015.69 1016.05 1016.44 1016.86 1017.29 1017.73 1018.16 1018.55 1018.92 1019.25 1019.54
1011.49 1011.81 1012.05 1012.19 1012.25 1012.25 1012.22 1012.21 1012.23 1012.31 1012.42 1012.56 1012.70 1012.81 1012.87 1012.87 1012.82 1012.73 1012.64 1012.56 1012.52 1012.55 1012.64 1012.80 1013.01 1013.26 1013.51 1013.77 1014.02 1014.27 1014.52 1014.78 1015.08 1015.41 1015.79 1016.21 1016.66 1017.12 1017.57 1017.99 1018.39 1018.75 1019.08
1010.76 1011.18 1011.55 1011.84 1012.05 1012.17 1012.24 1012.29 1012.34 1012.42 1012.51 1012.62 1012.73 1012.80 1012.82 1012.78 1012.69 1012.54 1012.39 1012.24 1012.15 1012.13 1012.18 1012.32 1012.52 1012.77 1013.03 1013.29 1013.54 1013.77 1014.00 1014.23 1014.50 1014.80 1015.16 1015.56 1015.99 1016.44 1016.90 1017.34 1017.75 1018.13 1018.50
1010.12 1010.62 1011.10 1011.53 1011.86 1012.11 1012.29 1012.40 1012.49 1012.58 1012.67 1012.76 1012.83 1012.88 1012.87 1012.79 1012.65 1012.46 1012.24 1012.03 1011.87 1011.79 1011.80 1011.89 1012.07 1012.31 1012.57 1012.83 1013.07 1013.30 1013.51 1013.73 1013.96 1014.24 1014.56 1014.92 1015.32 1015.75 1016.18 1016.61 1017.02 1017.42 1017.81
1009.63 1010.15 1010.70 1011.22 1011.66 1012.01 1012.27 1012.46 1012.59 1012.70 1012.79 1012.88 1012.95 1012.98 1012.96 1012.87 1012.70 1012.47 1012.20 1011.94 1011.71 1011.56 1011.50 1011.54 1011.68 1011.88 1012.13 1012.38 1012.62 1012.85 1013.06 1013.26 1013.47 1013.72 1014.00 1014.32 1014.68 1015.06 1015.45 1015.85 1016.25 1016.64 1017.04
1009.29 1009.79 1010.34 1010.90 1011.40 1011.82 1012.14 1012.38 1012.56 1012.70 1012.82 1012.93 1013.02 1013.08 1013.08 1012.99 1012.83 1012.58 1012.28 1011.96 1011.67 1011.45 1011.31 1011.29 1011.36 1011.52 1011.73 1011.96 1012.19 1012.41 1012.62 1012.81 1013.02 1013.24 1013.48 1013.76 1014.07 1014.40 1014.75 1015.10 1015.46 1015.83 1016.21
1009.10 1009.52 1010.03 1010.57 1011.08 1011.52 1011.88 1012.15 1012.37 1012.55 1012.72 1012.88 1013.02 1013.13 1013.17 1013.13 1013.00 1012.76 1012.45 1012.10 1011.76 1011.46 1011.25 1011.14 1011.13 1011.22 1011.38 1011.57 1011.78 1011.99 1012.19 1012.38 1012.58 1012.79 1013.01 1013.26 1013.52 1013.80 1014.09 1014.38 1014.69 1015.02 1015.38
1009.05 1009.36 1009.77 1010.24 1010.71 1011.13 1011.49 1011.79 1012.04 1012.26 1012.48 1012.71 1012.92 1013.10 1013.23 1013.26 1013.18 1012.98 1012.68 1012.32 1011.94 1011.58 1011.29 1011.10 1011.00 1011.01 1011.09 1011.23 1011.40 1011.58 1011.77 1011.96 1012.16 1012.36 1012.58 1012.80 1013.03 1013.26 1013.50 1013.74 1013.99 1014.27 1014.58
1009.12 1009.29 1009.59 1009.96 1010.34 1010.71 1011.04 1011.33 1011.60 1011.87 1012.15 1012.44 1012.73 1013.00 1013.21 1013.33 1013.32 1013.18 1012.92 1012.58 1012.18 1011.78 1011.43 1011.15 1010.97 1010.89 1010.89 1010.95 1011.07 1011.22 1011.39 1011.57 1011.77 1011.97 1012.18 1012.40 1012.61 1012.80 1012.99 1013.18 1013.37 1013.58 1013.84
1009.28 1009.33 1009.51 1009.76 1010.04 1010.33 1010.61 1010.88 1011.15 1011.44 1011.76 1012.10 1012.47 1012.82 1013.11 1013.31 1013.38 1013.31 1013.11 1012.80 1012.41 1012.00 1011.62 1011.28 1011.03 1010.87 1010.79 1010.78 1010.83 1010.94 1011.07 1011.24 1011.43 1011.64 1011.85 1012.06 1012.26 1012.43 1012.58 1012.72 1012.84 1012.99 1013.18
1009.51 1009.46 1009.52 1009.66 1009.85 1010.05 1010.27 1010.49 1010.74 1011.03 1011.36 1011.74 1012.15 1012.55 1012.90 1013.17 1013.31 1013.31 1013.18 1012.92 1012.58 1012.20 1011.81 1011.46 1011.17 1010.95 1010.81 1010.74 1010.73 1010.78 1010.88 1011.03 1011.21 1011.41 1011.62 1011.83 1012.01 1012.17 1012.28 1012.36 1012.42 1012.49 1012.59
1009.77 1009.66 1009.64 1009.68 1009.77 1009.90 1010.04 1010.21 1010.42 1010.68 1011.00 1011.37 1011.78 1012.20 1012.58 1012.89 1013.08 1013.15 1013.09 1012.90 1012.63 1012.31 1011.97 1011.64 1011.36 1011.12 1010.95 1010.84 1010.79 1010.80 1010.86 1010.98 1011.14 1011.32 1011.53 1011.72 1011.89 1012.02 1012.09 1012.11 1012.11 1012.09 1012.11
1010.01 1009.87 1009.80 1009.78 1009.81 1009.86 1009.94 1010.05 1010.20 1010.41 1010.68 1011.01 1011.39 1011.78 1012.15 1012.46 1012.69 1012.81 1012.81 1012.72 1012.54 1012.31 1012.06 1011.80 1011.57 1011.37 1011.22 1011.10 1011.03 1011.02 1011.05 1011.13 1011.26 1011.42 1011.60 1011.77 1011.91 1012.00 1012.02 1011.98 1011.90 1011.80 1011.72
1010.16 1010.02 1009.94 1009.90 1009.88 1009.89 1009.91 1009.96 1010.05 1010.20 1010.40 1010.66 1010.97 1011.30 1011.63 1011.92 1012.15 1012.30 1012.37 1012.36 1012.29 1012.18 1012.05 1011.91 1011.77 1011.66 1011.56 1011.48 1011.43 1011.41 1011.42 1011.48 1011.58 1011.71 1011.85 1011.99 1012.08 1012.12 1012.08 1011.98 1011.82 1011.63 1011.45
1010.14 1010.05 1009.99 1009.95 1009.92 1009.91 1009.90 1009.90 1009.94 1010.01 1010.14 1010.32 1010.54 1010.80 1011.06 1011.30 1011.52 1011.68 1011.80 1011.87 1011.90 1011.92 1011.92 1011.92 1011.92 1011.92 1011.91 1011.91 1011.91 1011.92 1011.94 1012.00 1012.07 1012.17 1012.27 1012.35 1012.39 1012.37 1012.28 1012.10 1011.86 1011.59 1011.32
1009.91 1009.88 1009.87 1009.86 1009.86 1009.84 1009.82 1009.80 1009.79 1009.81 1009.87 1009.97 1010.11 1010.28 1010.47 1010.66 1010.84 1011.00 1011.14 1011.27 1011.39 1011.52 1011.65 1011.79 1011.94 1012.07 1012.19 1012.29 1012.38 1012.45 1012.51 1012.58 1012.65 1012.72 1012.79 1012.83 1012.82 1012.74 1012.58 1012.35 1012.04 1011.70 1011.36
1009.45 1009.48 1009.53 1009.58 1009.62 1009.63 1009.62 1009.60 1009.57 1009.55 1009.56 1009.60 1009.68 1009.78 1009.90 1010.03 1010.17 1010.31 1010.45 1010.61 1010.79 1011.00 1011.24 1011.51 1011.78 1012.05 1012.30 1012.53 1012.72 1012.88 1013.00 1013.11 1013.20 1013.28 1013.33 1013.34 1013.30 1013.18 1012.98 1012.71 1012.36 1011.98 1011.60
1008.77 1008.87 1008.99 1009.11 1009.20 1009.25 1009.27 1009.26 1009.24 1009.21 1009.20 1009.21 1009.25 1009.31 1009.38 1009.46 1009.55 1009.66 1009.78 1009.94 1010.14 1010.39 1010.69 1011.04 1011.41 1011.80 1012.18 1012.52 1012.83 1013.09 1013.31 1013.49 1013.64 1013.74 1013.81 1013.82 1013.77 1013.65 1013.44 1013.16 1012.80 1012.42 1012.03
1007.92 1008.09 1008.27 1008.45 1008.59 1008.70 1008.75 1008.78 1008.78 1008.77 1008.77 1008.79 1008.82 1008.86 1008.91 1008.96 1009.01 1009.07 1009.15 1009.28 1009.45 1009.70 1010.01 1010.39 1010.83 1011.30 1011.77 1012.23 1012.66 1013.04 1013.37 1013.64 1013.87 1014.04 1014.15 1014.21 1014.19 1014.10 1013.92 1013.67 1013.35 1012.99 1012.64
1006.98 1007.20 1007.44 1007.66 1007.85 1008.00 1008.09 1008.15 1008.19 1008.22 1008.26 1008.31 1008.37 1008.42 1008.47 1008.51 1008.53 1008.55 1008.57 1008.64 1008.75 1008.95 1009.23 1009.60 1010.05 1010.56 1011.11 1011.66 1012.20 1012.69 1013.14 1013.53 1013.86 1014.12 1014.33 1014.46 1014.51 1014.49 1014.39 1014.20 1013.96 1013.67 1013.38
1006.03 1006.29 1006.56 1006.81 1007.03 1007.20 1007.32 1007.42 1007.50 1007.58 1007.67 1007.77 1007.88 1007.98 1008.05 1008.09 1008.10 1008.07 1008.04 1008.02 1008.06 1008.18 1008.39 1008.72 1009.15 1009.67 1010.26 1010.88 1011.51 1012.11 1012.68 1013.19 1013.63 1014.01 1014.32 1014.56 1014.72 1014.80 1014.80 1014.73 1014.59 1014.40 1014.20
1005.15 1005.41 1005.69 1005.94 1006.16 1006.34 1006.48 1006.60 1006.72 1006.85 1007.00 1007.17 1007.35 1007.50 1007.62 1007.68 1007.68 1007.62 1007.53 1007.45 1007.40 1007.42 1007.56 1007.82 1008.21 1008.72 1009.33 1010.00 1010.70 1011.40 1012.07 1012.69 1013.25 1013.75 1014.18 1014.53 1014.81 1015.01 1015.14 1015.19 1015.18 1015.12 1015.02
1004.35 1004.60 1004.86 1005.09 1005.30 1005.46 1005.60 1005.73 1005.88 1006.06 1006.28 1006.52 1006.76 1006.98 1007.15 1007.24 1007.25 1007.17 1007.04 1006.90 1006.78 1006.73 1006.79 1006.99 1007.34 1007.83 1008.45 1009.15 1009.90 1010.67 1011.43 1012.14 1012.80 1013.40 1013.94 1014.40 1014.80 1015.12 1015.38 1015.56 1015.68 1015.75 1015.77
1003.64 1003.86 1004.08 1004.28 1004.44 1004.58 1004.72 1004.86 1005.03 1005.26 1005.53 1005.83 1006.14 1006.42 1006.64 1006.77 1006.79 1006.71 1006.56 1006.38 1006.21 1006.11 1006.13 1006.29 1006.62 1007.10 1007.72 1008.44 1009.23 1010.06 1010.87 1011.65 1012.38 1013.05 1013.67 1014.22 1014.71 1015.14 1015.51 1015.81 1016.06 1016.24 1016.37
1002.99 1003.15 1003.33 1003.48 1003.61 1003.73 1003.85 1004.00 1004.21 1004.47 1004.79 1005.15 1005.51 1005.84 1006.10 1006.26 1006.30 1006.23 1006.08 1005.89 1005.71 1005.60 1005.60 1005.76 1006.08 1006.58 1007.21 1007.96 1008.78 1009.62 1010.47 1011.28 1012.04 1012.75 1013.41 1014.01 1014.56 1015.07 1015.52 1015.93 1016.27 1016.56 1016.79
Thickness
5743 5743 5743 5742 5742 5742 5742 5742 5742 5741 5740 5740 5739 5739 5739 5739 5738 5737 5737 5737 5737 5737 5736 5736 5735 5735 5735 5734 5733 5732 5730 5730 5729 5728 5727 5726 5725 5724 5723 5722 5720 5720 5719
5739 5739 5739 5739 5739 5739 5738 5738 5738 5738 5737 5737 5737 5737 5737 5737 5737 5737 5737 5735 5736 5736 5735 5735 5734 5733 5734 5734 5733 5731 5730 5729 5729 5728 5728 5727 5726 5725 5725 5723 5721 5720 5720
5735 5734 5734 5735 5735 5735 5734 5734 5734 5733 5733 5733 5733 5734 5735 5736 5736 5736 5736 5735 5734 5734 5734 5733 5732 5732 5732 5733 5732 5731 5729 5728 5728 5728 5727 5727 5727 5726 5726 5725 5723 5722 5721
5730 5730 5730 5730 5731 5730 5729 5729 5728 5728 5728 5728 5729 5730 5732 5733 5734 5735 5734 5734 5733 5732 5732 5732 5731 5731 5731 5731 5731 5729 5728 5728 5728 5727 5727 5726 5726 5727 5726 5726 5725 5723 5722
5724 5725 5726 5726 5726 5725 5725 5724 5723 5723 5723 5723 5725 5727 5729 5730 5731 5732 5733 5733 5732 5730 5730 5730 5730 5730 5730 5729 5729 5728 5727 5727 5727 5726 5726 5726 5726 5726 5727 5727 5726 5725 5724
5719 5720 5720 5720 5721 5720 5719 5719 5718 5719 5718 5719 5721 5723 5725 5727 5729 5730 5731 5732 5731 5730 5729 5729 5729 5729 5728 5728 5728 5728 5727 5726 5726 5725 5725 5725 5726 5726 5726 5727 5727 5726 5725
5716 5716 5716 5715 5715 5716 5715 5714 5713 5713 5713 5714 5714 5715 5720 5723 5726 5727 5728 5729 5729 5729 5728 5727 5727 5727 5727 5727 5727 5727 5726 5724 5724 5724 5724 5724 5724 5725 5726 5726 5726 5727 5726
5712 5712 5712 5711 5711 5710 5709 5709 5708 5707 5707 5708 5708 5706 5708 5713 5719 5723 5723 5724 5725 5725 5725 5725 5725 5725 5725 5725 5726 5725 5724 5724 5723 5723 5722 5722 5723 5723 5724 5725 5726 5726 5727
5707 5707 5705 5705 5705 5705 5704 5703 5703 5702 5701 5701 5703 5701 5700 5701 5706 5713 5716 5719 5720 5721 5721 5722 5723 5723 5723 5723 5723 5723 5723 5722 5722 5721 5720 5721 5720 5721 5722 5723 5724 5725 5725
5700 5700 5700 5700 5699 5699 5698 5698 5698 5697 5696 5695 5696 5697 5699 5700 5699 5700 5707 5711 5714 5716 5718 5719 5720 5720 5720 5721 5721 5721 5721 5720 5719 5719 5718 5718 5718 5718 5719 5720 5721 5722 5724
5693 5693 5692 5693 5692 5692 5692 5691 5691 5691 5691 5690 5690 5691 5692 5693 5694 5693 5695 5701 5707 5711 5713 5715 5717 5718 5718 5718 5719 5719 5718 5717 5717 5716 5715 5715 5715 5715 5716 5716 5717 5719 5721
5682 5683 5683 5683 5684 5684 5685 5684 5684 5684 5684 5684 5685 5686 5687 5687 5689 5689 5690 5693 5697 5703 5708 5711 5713 5714 5715 5715 5716 5716 5715 5715 5714 5713 5712 5712 5712 5712 5713 5713 5714 5715 5717
5669 5670 5671 5672 5673 5675 5676 5676 5676 5676 5677 5678 5679 5681 5682 5684 5686 5686 5686 5687 5689 5695 5701 5706 5708 5709 5709 5711 5711 5711 5711 5710 5709 5709 5708 5708 5708 5708 5708 5708 5709 5711 5713
5655 5657 5658 5660 5661 5663 5665 5666 5667 5667 5669 5670 5672 5674 5675 5678 5680 5681 5682 5682 5683 5687 5691 5697 5702 5702 5703 5704 5704 5705 5705 5704 5704 5703 5702 5702 5702 5702 5703 5704 5705 5706 5708
5639 5640 5642 5645 5646 5649 5651 5654 5656 5658 5660 5662 5664 5666 5668 5671 5673 5675 5677 5677 5677 5678 5683 5689 5693 5696 5696 5696 5697 5697 5697 5696 5696 5695 5695 5695 5695 5696 5697 5698 5699 5701 5704
5621 5622 5624 5626 5629 5633 5636 5638 5641 5645 5647 5651 5654 5657 5659 5662 5665 5667 5670 5672 5673 5674 5676 5682 5686 5688 5689 5689 5689 5689 5688 5687 5688 5688 5688 5688 5689 5689 5690 5691 5692 5695 5698
5602 5603 5605 5607 5610 5614 5618 5621 5625 5629 5632 5637 5641 5646 5649 5652 5655 5658 5661 5664 5667 5669 5671 5676 5679 5681 5682 5681 5681 5680 5679 5678 5678 5678 5679 5680 5680 5681 5683 5684 5685 5688 5691
5583 5584 5586 5588 5591 5595 5599 5603 5606 5612 5616 5621 5626 5632 5637 5641 5645 5649 5652 5656 5660 5663 5666 5669 5672 5674 5675 5675 5674 5672 5671 5669 5668 5668 5670 5670 5671 5673 5674 5676 5678 5680 5684
5569 5568 5569 5570 5573 5576 5580 5584 5588 5593 5599 5605 5611 5617 5623 5628 5634 5638 5642 5647 5652 5656 5660 5663 5666 5668 5669 5668 5666 5664 5662 5660 5659 5658 5659 5660 5662 5663 5665 5667 5669 5672 5675
5558 5557 5557 5557 5558 5560 5563 5566 5571 5575 5581 5588 5595 5602 5609 5615 5622 5627 5632 5638 5643 5648 5652 5656 5660 5662 5663 5662 5661 5658 5654 5652 5651 5650 5650 5650 5652 5653 5655 5657 5660 5662 5665
5550 5549 5548 5548 5547 5548 5550 5551 5554 5559 5564 5570 5578 5586 5594 5603 5610 5616 5622 5629 5634 5640 5645 5650 5654 5657 5658 5657 5656 5653 5649 5645 5642 5641 5641 5641 5642 5643 5645 5646 5649 5651 5654
5541 5540 5540 5540 5540 5541 5543 5543 5543 5545 5549 5553 5561 5570 5578 5588 5597 5605 5613 5620 5626 5633 5639 5645 5650 5654 5655 5655 5652 5649 5645 5641 5637 5633 5635 5632 5633 5634 5635 5636 5638 5640 5643
5532 5532 5533 5534 5535 5535 5536 5536 5536 5536 5538 5541 5546 5554 5563 5574 5583 5592 5601 5610 5618 5626 5634 5641 5646 5651 5653 5653 5650 5645 5642 5640 5636 5631 5629 5625 5624 5624 5625 5625 5628 5630 5632
5521 5523 5525 5527 5528 5531 5531 5531 5531 5531 5531 5533 5537 5542 5550 5559 5569 5579 5589 5600 5610 5619 5628 5635 5642 5648 5650 5650 5649 5646 5640 5634 5628 5624 5625 5620 5616 5615 5615 5616 5618 5620 5622
5511 5513 5517 5520 5521 5524 5526 5527 5526 5526 5526 5528 5530 5534 5540 5548 5558 5567 5578 5590 5601 5612 5620 5628 5635 5640 5643 5644 5643 5638 5633 5630 5623 5619 5619 5616 5610 5609 5608 5607 5608 5610 5612
5501 5504 5508 5512 5514 5518 5520 5521 5521 5521 5521 5523 5525 5528 5533 5540 5547 5556 5567 5580 5592 5604 5612 5620 5627 5632 5635 5637 5638 5638 5636 5631 5624 5616 5614 5613 5609 5608 5603 5600 5600 5601 5602